Regional Weather Roundup
Issued by NWS

Home | Current Version | Previous Version | Graphics & Text | Print | Product List | Glossary On
Versions: 1 2 3 4 5 6 7 8 9 10 11 12 13 14 15 16 17 18 19 20 21 22 23 24 25 26 27 28 29 30 31 32 33 34 35 36 37 38 39 40 41 42 43 44 45 46 47 48 49 50
000
ASUS43 KLOT 042021
RWRIL

ILLINOIS REGIONAL WEATHER ROUNDUP
NATIONAL WEATHER SERVICE CHICAGO/ROMEOVILLE IL
300 PM CDT TUE AUG 04 2015

NOTE: "FAIR" INDICATES FEW OR NO CLOUDS BELOW 12,000 FEET WITH NO
SIGNIFICANT WEATHER AND/OR OBSTRUCTIONS TO VISIBILITY.

* THESE STATIONS ARE NOT UNDER NWS QUALITY CONTROL. THEY ALSO MAY NOT
  REPORT WEATHER SUCH AS PRECIPITATION OR FOG.

ILZ001-002-007-009-015-016-024-042100-
NORTHWEST ILLINOIS

CITY           SKY/WX    TMP DP  RH WIND       PRES   REMARKS
MOLINE         CLOUDY    80  59  48 VRB5      30.00F HX  81
STERLING*      PTSUNNY   81  57  44 W9        29.98F HX  81
SAVANNA*       PTSUNNY   80  54  41 NW8       29.99F HX  80
$$

ILZ003-004-008-010-011-017-018-042100-
NORTH CENTRAL ILLINOIS

CITY           SKY/WX    TMP DP  RH WIND       PRES   REMARKS
ROCKFORD       PTSUNNY   81  53  37 NW10G20   30.01S HX  80
FREEPORT*      MOSUNNY   78  52  40 W10G16    30.01F
ROCHELLE*      MOSUNNY   78  56  47 W10G17    30.01S
DE KALB*       MOSUNNY   79  56  44 NW10G17   30.01S
PERU*          CLOUDY    78  55  45 NW12      30.02S
$$

ILZ005-006-012>014-019>023-042100-
NORTHEAST ILLINOIS

CITY           SKY/WX    TMP DP  RH WIND       PRES   REMARKS
CHICAGO-OHARE  PTSUNNY   81  51  35 NW15G22   29.97S HX  80
CHICAGO-MIDWAY PTSUNNY   84  51  31 W13G21    29.97S HX  82
AURORA         MOSUNNY   80  55  42 W12       30.00S HX  80
LANSING*       MOSUNNY   83  52  34 W16       29.97F HX  81
JOLIET*        MOSUNNY   82  58  43 W6        29.99S HX  82
WAUKEGAN       PTSUNNY   78  55  44 W7        29.97R
DUPAGE AIRPORT MOSUNNY   79  54  41 W14       29.98S
KANKAKEE*      PTSUNNY   80  59  49 W10G16    30.01S HX  80
WHEELING       PTSUNNY   81  51  35 NW13      29.98S HX  80
MORRIS*        PTSUNNY   80  57  45 NW10G18   29.99S HX  80
ROMEOVILLE*    MOSUNNY   78  52  40 NW14      29.99S
NORTHERLY ISL    N/A     81  47  30 W6          N/A  HX  80
$$

LMZ740>746-042100-
SOUTHERN LAKE MICHIGAN

STATION/POSITION SKY/WX   TEMP    WIND        PRES    VSBY  WAVE
                          AIR SEA DIR/SP/G                  HT/PER
                          (F)     (DEG/KT/KT) (MB)    (MI)  (FT/S)
HARRISON CRIB              75     110/  7/  9   N/A
BURNHAM HARBOR             80     300/ 10/ 15   N/A
CALUMET HARBOR             81     300/  6/ 11   N/A
BURNS HARBOR               76      20/  3/  4 1015.2S
MICHIGAN CITY              80     320/  3/  4   N/A
MICHIGAN CITY 6N           76 77  360/  4/  6   N/A           1
ST. JOSEPH                 74 74  260/  6/  6   N/A           1/ 3
$$

ILZ025>027-034>036-040-047-049-050-058-095>099-042100-
WEST-CENTRAL ILLINOIS

CITY           SKY/WX    TMP DP  RH WIND       PRES   REMARKS
QUINCY         CLOUDY    76  60  57 E8        30.00F
GALESBURG*       N/A    N/A N/A N/A MISG        N/A
MACOMB*        CLOUDY    74  63  68 CALM      30.00F
JACKSONVILLE*  CLOUDY    75  64  67 S3        30.03F
PITTSFIELD*    PTSUNNY   78  64  63 NE6       30.03F
$$

ILZ028>032-037-038-041>044-048-051>054-059>061-042100-
CENTRAL ILLINOIS

CITY           SKY/WX    TMP DP  RH WIND       PRES   REMARKS
PONTIAC        CLOUDY    78  63  60 W8G16     30.02S HX  80
BLOOMINGTON    PTSUNNY   81  61  50 W10       30.04S HX  82
DECATUR        PTSUNNY   81  60  48 W9        30.03S HX  82
PEORIA         CLOUDY    81  60  48 NW6       30.01F HX  82
LACON*         CLOUDY    79  61  54 NW6       30.00F HX  80
LINCOLN*       PTSUNNY   82  58  43 SW5       30.02S HX  82
SPRINGFIELD    LGT RAIN  79  64  60 CALM      30.02F HX  81
TAYLORVILLE    LGT RAIN  70  66  88 CALM      30.04F
$$

ILZ033-039-045-046-055>057-062-063-042100-
EAST-CENTRAL ILLINOIS

CITY           SKY/WX    TMP DP  RH WIND       PRES   REMARKS
CHAMPAIGN      PTSUNNY   80  62  54 SW9       30.03S HX  81
DANVILLE*      PTSUNNY   80  60  51 W8        29.99F HX  81
RANTOUL*       PTSUNNY   83  59  43 W9        30.02S HX  83
MATTOON        CLOUDY    78  59  51 NW10      30.02R
PARIS*         CLOUDY    77  62  58 W6        30.03S
$$

ILZ079-100>102-042100-
SOUTHWEST ILLINOIS

CITY           SKY/WX    TMP DP  RH WIND       PRES   REMARKS
ALTON          PTSUNNY   84  72  65 CALM      30.00S HX  89
BELLEVILLE     MOSUNNY   90  75  62 NE3       29.96F HX 100
CAHOKIA*       PTSUNNY   92  67  43 VRB7      29.97F HX  95
SPARTA*        PTSUNNY   83  69  61 NW13G22   29.97F HX  87
$$

ILZ064>066-069>071-074>076-080>082-084>086-088>090-092>094-042100-
SOUTH-CENTRAL ILLINOIS

CITY           SKY/WX    TMP DP  RH WIND       PRES   REMARKS
CARBONDALE     PTSUNNY   91  74  57 SW10      29.96F HX 100
CAIRO*         PTSUNNY   91  71  50 W7        29.96F HX  98
EFFINGHAM*     CLOUDY    81  63  54 W7        30.03R HX  82
MARION         MOSUNNY   91  73  55 SW12      29.97F HX 100
MT. VERNON     MOSUNNY   90  72  55 CALM      29.97F HX  96
CENTRALIA*     MOSUNNY   89  69  50 W3        29.98F HX  93
SALEM*         PTSUNNY   89  70  52 N5        29.98F HX  94
METROPOLIS*    MOSUNNY   93  75  56 SW7       29.97F HX 104
$$

ILZ067-068-072-073-078-083-087-091-042100-
SOUTHEAST ILLINOIS

CITY           SKY/WX    TMP DP  RH WIND       PRES   REMARKS
LAWRENCEVILLE  MOSUNNY   85  68  56 NW8       29.99F HX  88
FLORA*         MOSUNNY   87  69  54 CALM      29.98F HX  91
FAIRFIELD*     MOSUNNY   87  74  64 N5        29.96F HX  95
HARRISBURG*    MOSUNNY   90  71  53 W9        29.96F HAZE    HX  96
ROBINSON*      MOSUNNY   83  66  57 N8        30.01S HX  85
CARMI*         MOSUNNY   90  70  52 W7        29.95F HX  95
$$

ABBREVIATIONS USED IN REMARKS
   TC - TEMPERATURE IN CELSIUS
  WCI - WIND CHILL INDEX
   HX - HEAT INDEX
  VSB - VISIBILITY
$$




USA.gov is the U.S. government's official web portal to all federal, state and local government web resources and services.